GW1213 Weather Reports


time (UTC)temp
C
wind
direction
speed
KPH
gust
KPH
rain 1hr
cm
rain 24hr
cm
rain mn
cm
humidity
%
barometer
mb
20260831022536 23 0 0.0 0.0 0.00 0.00 0.00 91 1018.9
20260831022035 23 0 0.0 0.0 0.00 0.00 0.00 91 1018.8
20260831021605 23 0 0.0 0.0 0.00 0.00 0.00 91 1018.8
20260831021040 23 0 0.0 0.0 0.00 0.00 0.00 90 1018.8
20260831020538 23 0 0.0 0.0 0.00 0.00 0.00 90 1018.8
20260831020110 23 0 0.0 0.0 0.00 0.00 0.00 90 1018.8
20260831015537 23 0 0.0 0.0 0.00 0.00 0.00 90 1018.7
20260831015037 23 0 0.0 0.0 0.00 0.00 0.00 90 1018.7
20260831014615 23 0 0.0 0.0 0.00 0.00 0.00 91 1018.8
20260831014037 23 0 0.0 0.0 0.00 0.00 0.00 91 1018.7
20260831013536 23 0 0.0 0.0 0.00 0.00 0.00 90 1018.7
20260831013104 23 0 0.0 0.0 0.00 0.00 0.00 90 1018.8
20260831012535 23 0 0.0 0.0 0.00 0.00 0.00 90 1018.8
20260831012035 23 0 0.0 0.0 0.00 0.00 0.00 89 1018.8
20260831011616 23 0 0.0 0.0 0.00 0.00 0.00 89 1018.7
20260831011037 23 0 0.0 0.0 0.00 0.00 0.00 89 1018.6
20260831010537 23 0 0.0 0.0 0.00 0.00 0.00 89 1018.6
20260831005536 23 0 0.0 0.0 0.00 0.00 0.00 89 1018.5
20260831005037 23 0 0.0 0.0 0.00 0.00 0.00 89 1018.5
20260831004600 23 0 0.0 0.0 0.00 0.00 0.00 89 1018.4
20260831004037 23 0 0.0 0.0 0.00 0.00 0.00 88 1018.2
20260831003537 23 0 0.0 0.0 0.00 0.00 0.00 87 1018.3
20260831003106 23 0 0.0 0.0 0.00 0.00 0.00 87 1018.2
20260831002540 24 0 0.0 0.0 0.00 0.00 0.00 86 1018.1
20260831002038 24 0 0.0 0.0 0.00 0.00 0.00 86 1018.0
20260831001607 24 0 0.0 0.0 0.00 0.00 0.00 84 1017.9
20260831001038 25 0 0.0 0.0 0.00 0.00 0.00 83 1017.8
20260831000538 25 0 0.0 0.0 0.00 0.00 0.00 83 1017.7
20260831000103 25 0 0.0 0.0 0.00 0.00 0.00 82 1017.8
20260830235539 25 0 0.0 0.0 0.00 0.00 0.00 79 1017.9
20260830235038 25 0 0.0 1.6 0.00 0.00 0.00 77 1017.9
20260830234558 25 0 0.0 1.6 0.00 0.00 0.00 78 1017.8
20260830234039 26 0 0.0 1.6 0.00 0.00 0.00 77 1017.9
20260830233537 26 0 0.0 3.2 0.00 0.00 0.00 76 1018.0
20260830233107 26 0 0.0 9.7 0.00 0.00 0.00 74 1018.2
20260830232541 27 279 1.6 9.7 0.00 0.00 0.00 70 1018.5
20260830232038 27 288 3.2 9.7 0.00 0.00 0.00 68 1018.6
20260830231610 27 0 1.6 11.3 0.00 0.00 0.00 68 1018.7
20260830231038 28 257 1.6 11.3 0.00 0.00 0.00 65 1018.6
20260830230535 28 229 3.2 9.7 0.00 0.00 0.00 65 1018.6
20260830230100 28 255 3.2 9.7 0.00 0.00 0.00 65 1018.6
20260830225537 29 263 1.6 6.4 0.00 0.00 0.00 67 1018.5
20260830225037 29 275 0.0 4.8 0.00 0.00 0.00 66 1018.2
20260830224611 29 247 0.0 4.8 0.00 0.00 0.00 66 1018.0
20260830224038 30 0 0.0 6.4 0.00 0.00 0.00 66 1018.0
20260830223538 29 186 0.0 6.4 0.00 0.00 0.00 66 1017.9
20260830223102 29 0 0.0 6.4 0.00 0.00 0.00 66 1017.9
20260830222535 30 0 0.0 6.4 0.00 0.00 0.00 65 1017.6
20260830222037 30 0 1.6 8.0 0.00 0.00 0.00 65 1017.6
20260830221609 30 202 1.6 8.0 0.00 0.00 0.00 64 1017.7
20260830221037 30 0 1.6 9.7 0.00 0.00 0.00 65 1017.6
20260830220537 30 0 0.0 9.7 0.00 0.00 0.00 64 1017.7
20260830220104 30 266 0.0 8.0 0.00 0.00 0.00 64 1017.7
20260830215538 30 186 1.6 11.3 0.00 0.00 0.00 64 1017.7
20260830215036 30 244 1.6 11.3 0.00 0.00 0.00 63 1017.8
20260830214605 30 242 1.6 8.0 0.00 0.00 0.00 63 1017.6
20260830214038 30 205 1.6 11.3 0.00 0.00 0.00 62 1017.7
20260830213538 30 0 3.2 11.3 0.00 0.00 0.00 62 1017.7
20260830213103 31 0 3.2 9.7 0.00 0.00 0.00 61 1017.7
20260830212538 31 0 1.6 9.7 0.00 0.00 0.00 62 1017.7
20260830212036 31 238 0.0 12.9 0.00 0.00 0.00 60 1017.6
20260830211601 31 150 1.6 12.9 0.00 0.00 0.00 59 1017.7
20260830211038 31 240 1.6 11.3 0.00 0.00 0.00 60 1017.6
20260830210537 31 237 3.2 12.9 0.00 0.00 0.00 60 1017.5
20260830210103 31 0 1.6 14.5 0.00 0.00 0.00 61 1017.4
20260830205537 31 121 1.6 14.5 0.00 0.00 0.00 60 1017.5
20260830205040 31 153 3.2 14.5 0.00 0.00 0.00 61 1017.5
20260830204602 31 74 3.2 12.9 0.00 0.00 0.00 60 1017.5
20260830204037 31 148 3.2 12.9 0.00 0.00 0.00 62 1017.4
20260830203537 31 276 1.6 12.9 0.00 0.00 0.00 60 1017.5
20260830203107 31 55 3.2 12.9 0.00 0.00 0.00 59 1017.6
20260830202537 31 250 3.2 11.3 0.00 0.00 0.00 58 1017.7
20260830202037 31 159 4.8 11.3 0.00 0.00 0.00 58 1017.8
20260830201602 31 153 3.2 12.9 0.00 0.00 0.00 59 1017.8
20260830201034 31 247 1.6 12.9 0.00 0.00 0.00 60 1017.9
20260830200541 31 0 4.8 11.3 0.00 0.00 0.00 59 1017.8
20260830195534 31 72 3.2 14.5 0.00 0.00 0.00 61 1017.9
20260830195043 31 159 4.8 12.9 0.00 0.00 0.00 59 1018.1
20260830194558 31 221 4.8 12.9 0.00 0.00 0.00 59 1018.1
20260830194036 31 146 1.6 12.9 0.00 0.00 0.00 60 1018.1
20260830193538 31 222 1.6 12.9 0.00 0.00 0.00 60 1018.1
20260830193108 31 281 4.8 11.3 0.00 0.00 0.00 59 1018.1
20260830192537 31 223 3.2 19.3 0.00 0.00 0.00 60 1018.1
20260830192037 31 0 3.2 19.3 0.00 0.00 0.00 61 1018.3
20260830191602 31 219 3.2 11.3 0.00 0.00 0.00 59 1018.5
20260830191037 31 161 3.2 14.5 0.00 0.00 0.00 61 1018.6
20260830190538 31 0 4.8 14.5 0.00 0.00 0.00 60 1018.8
20260830190106 31 54 3.2 12.9 0.00 0.00 0.00 60 1018.9
20260830185538 31 171 3.2 12.9 0.00 0.00 0.00 60 1019.2
20260830185039 31 246 3.2 11.3 0.00 0.00 0.00 60 1019.3
20260830184554 31 253 4.8 11.3 0.00 0.00 0.00 61 1019.3
20260830184038 31 246 3.2 11.3 0.00 0.00 0.00 61 1019.4
20260830183538 31 0 1.6 12.9 0.00 0.00 0.00 63 1019.4
20260830183104 31 0 3.2 12.9 0.00 0.00 0.00 64 1019.5
20260830182538 30 0 1.6 16.1 0.00 0.00 0.00 65 1019.6
20260830182038 30 148 3.2 16.1 0.00 0.00 0.00 64 1019.5
20260830181602 30 241 4.8 12.9 0.00 0.00 0.00 64 1019.7
20260830181038 30 248 3.2 17.7 0.00 0.00 0.00 64 1019.7
20260830180537 30 264 3.2 17.7 0.00 0.00 0.00 63 1019.8
20260830175534 30 161 1.6 11.3 0.00 0.00 0.00 66 1020.0
20260830175038 30 159 1.6 12.9 0.00 0.00 0.00 67 1020.1
20260830174601 30 234 3.2 14.5 0.00 0.00 0.00 68 1020.2
20260830174038 30 188 3.2 20.9 0.00 0.00 0.00 66 1020.3
20260830173537 30 252 6.4 20.9 0.00 0.00 0.00 65 1020.3
20260830173100 30 281 1.6 12.9 0.00 0.00 0.00 67 1020.3
20260830172541 29 234 4.8 12.9 0.00 0.00 0.00 66 1020.4
20260830172037 29 219 1.6 12.9 0.00 0.00 0.00 68 1020.4
20260830171612 29 192 3.2 16.1 0.00 0.00 0.00 68 1020.5
20260830171041 29 0 0.0 16.1 0.00 0.00 0.00 68 1020.6
20260830170539 28 241 4.8 11.3 0.00 0.00 0.00 68 1020.6
20260830170106 28 145 3.2 8.0 0.00 0.00 0.00 70 1020.7
20260830165537 28 221 1.6 11.3 0.00 0.00 0.00 69 1020.8
20260830165039 28 182 3.2 11.3 0.00 0.00 0.00 69 1020.8
20260830164604 28 103 1.6 8.0 0.00 0.00 0.00 70 1020.8
20260830164037 28 153 1.6 12.9 0.00 0.00 0.00 71 1020.9
20260830163538 28 194 3.2 12.9 0.00 0.00 0.00 70 1021.0
20260830163102 28 282 4.8 12.9 0.00 0.00 0.00 70 1021.0
20260830162538 28 136 1.6 14.5 0.00 0.00 0.00 68 1021.1
20260830162038 28 148 3.2 14.5 0.00 0.00 0.00 71 1021.1
20260830161613 28 239 4.8 16.1 0.00 0.00 0.00 71 1021.2
20260830161037 28 260 3.2 16.1 0.00 0.00 0.00 71 1021.3
20260830160538 27 221 4.8 12.9 0.00 0.00 0.00 71 1021.3
20260830155537 27 196 6.4 19.3 0.00 0.00 0.00 73 1021.3
20260830155038 27 222 3.2 12.9 0.00 0.00 0.00 73 1021.4
20260830154600 27 184 4.8 12.9 0.00 0.00 0.00 73 1021.3
20260830154035 27 216 3.2 12.9 0.00 0.00 0.00 74 1021.3
20260830153536 27 191 3.2 12.9 0.00 0.00 0.00 73 1021.3
20260830153103 27 272 1.6 11.3 0.00 0.00 0.00 76 1021.4
20260830152537 27 254 3.2 11.3 0.00 0.00 0.00 75 1021.5
20260830152038 27 252 3.2 14.5 0.00 0.00 0.00 74 1021.4
20260830151607 27 274 3.2 14.5 0.00 0.00 0.00 76 1021.5
20260830151039 27 144 4.8 11.3 0.00 0.00 0.00 77 1021.5
20260830150539 26 205 3.2 11.3 0.00 0.00 0.00 77 1021.4
20260830150101 26 234 1.6 11.3 0.00 0.00 0.00 78 1021.5
20260830145537 26 273 4.8 11.3 0.00 0.00 0.00 77 1021.4
20260830145038 26 230 3.2 11.3 0.00 0.00 0.00 78 1021.4
20260830144556 26 121 3.2 14.5 0.00 0.00 0.00 77 1021.3
20260830144038 26 126 1.6 14.5 0.00 0.00 0.00 77 1021.3
20260830143538 26 0 3.2 14.5 0.00 0.00 0.00 77 1021.4
20260830143108 26 238 1.6 12.9 0.00 0.00 0.00 78 1021.3
20260830142538 26 157 3.2 14.5 0.00 0.00 0.00 79 1021.4
20260830142038 26 160 3.2 14.5 0.00 0.00 0.00 80 1021.4
20260830141601 26 173 1.6 9.7 0.00 0.00 0.00 81 1021.6
20260830141042 25 184 1.6 11.3 0.00 0.00 0.00 83 1021.6
20260830140537 25 236 4.8 12.9 0.00 0.00 0.00 82 1021.6
20260830140101 25 0 3.2 12.9 0.00 0.00 0.00 83 1021.6
20260830135536 25 41 3.2 9.7 0.00 0.00 0.00 83 1021.7
20260830135038 25 0 1.6 9.7 0.00 0.00 0.00 84 1021.6
20260830134554 25 96 1.6 9.7 0.00 0.00 0.00 85 1021.6
20260830134040 25 132 3.2 9.7 0.00 0.00 0.00 86 1021.7
20260830133538 24 221 1.6 9.7 0.00 0.00 0.00 88 1021.7
20260830133103 23 140 3.2 8.0 0.00 0.00 0.00 88 1021.7
20260830132537 23 0 1.6 8.0 0.00 0.00 0.00 89 1021.8
20260830132038 23 252 1.6 8.0 0.00 0.00 0.00 89 1021.8
20260830131601 23 0 1.6 11.3 0.00 0.00 0.00 90 1021.8
20260830131036 23 198 4.8 11.3 0.00 0.00 0.00 90 1021.9
20260830130538 23 144 0.0 6.4 0.00 0.00 0.00 91 1022.1
20260830130108 23 155 1.6 11.3 0.00 0.00 0.00 92 1022.3
20260830125536 22 0 0.0 11.3 0.00 0.00 0.00 93 1022.2
20260830125036 22 148 1.6 11.3 0.00 0.00 0.00 93 1022.3
20260830124556 22 181 1.6 8.0 0.00 0.00 0.00 94 1022.2
20260830124036 22 174 0.0 6.4 0.00 0.00 0.00 95 1022.2
20260830123536 22 89 0.0 4.8 0.00 0.00 0.00 95 1022.2
20260830123127 22 0 0.0 4.8 0.00 0.00 0.00 95 1022.2
20260830122538 21 0 0.0 4.8 0.00 0.00 0.00 95 1022.4
20260830122043 21 67 0.0 4.8 0.00 0.00 0.00 95 1022.5
20260830121605 21 67 1.6 8.0 0.00 0.00 0.00 95 1022.5
20260830121040 21 195 0.0 8.0 0.00 0.00 0.00 95 1022.6
20260830120535 21 0 0.0 6.4 0.00 0.00 0.00 95 1022.6
20260830120059 21 59 0.0 4.8 0.00 0.00 0.00 95 1022.7
20260830115536 21 0 0.0 3.2 0.00 0.00 0.00 95 1022.7
20260830115039 21 0 0.0 3.2 0.00 0.00 0.00 96 1022.6
20260830114606 21 0 0.0 3.2 0.00 0.00 0.00 96 1022.6
20260830114037 21 0 0.0 1.6 0.00 0.00 0.00 96 1022.6
20260830113534 21 0 0.0 1.6 0.00 0.00 0.00 96 1022.5
20260830113104 21 0 0.0 3.2 0.00 0.00 0.00 96 1022.5
20260830112535 21 159 0.0 3.2 0.00 0.00 0.00 96 1022.4
20260830112039 21 0 0.0 3.2 0.00 0.00 0.00 96 1022.4
20260830111603 21 0 0.0 0.0 0.00 0.00 0.00 96 1022.4
20260830111035 21 0 0.0 0.0 0.00 0.00 0.00 96 1022.3
20260830110537 21 0 0.0 0.0 0.00 0.00 0.00 96 1022.3
20260830105540 21 0 0.0 8.0 0.00 0.00 0.00 96 1022.2
20260830105035 21 0 3.2 8.0 0.00 0.00 0.00 96 1022.2
20260830104555 21 72 0.0 4.8 0.00 0.00 0.00 96 1022.2
20260830104035 21 0 0.0 3.2 0.00 0.00 0.00 96 1022.3
20260830103537 21 0 0.0 1.6 0.00 0.00 0.00 96 1022.4
20260830103104 21 0 0.0 1.6 0.00 0.00 0.00 96 1022.3
20260830102535 21 0 0.0 0.0 0.00 0.00 0.00 96 1022.2
20260830102037 21 0 0.0 1.6 0.00 0.00 0.00 96 1022.1
20260830101602 21 0 0.0 1.6 0.00 0.00 0.00 96 1022.1
20260830101037 21 0 0.0 4.8 0.00 0.00 0.00 96 1022.1
20260830100534 21 0 0.0 6.4 0.00 0.00 0.00 96 1021.9
20260830100101 21 155 0.0 6.4 0.00 0.00 0.00 96 1022.0
20260830095537 21 0 0.0 3.2 0.00 0.00 0.00 96 1022.0
20260830095038 21 181 1.6 3.2 0.00 0.00 0.00 96 1022.0
20260830094601 21 55 0.0 1.6 0.00 0.00 0.00 96 1022.0
20260830094034 21 0 0.0 0.0 0.00 0.00 0.00 96 1022.0
20260830093537 21 0 0.0 0.0 0.00 0.00 0.00 96 1022.0
20260830093114 21 0 0.0 0.0 0.00 0.00 0.00 96 1022.0
20260830092535 21 0 0.0 0.0 0.00 0.00 0.00 96 1022.0
20260830092037 21 0 0.0 0.0 0.00 0.00 0.00 96 1021.9
20260830091604 21 0 0.0 0.0 0.00 0.00 0.00 96 1021.9
20260830091037 20 0 0.0 0.0 0.00 0.00 0.00 96 1021.9
20260830090537 20 0 0.0 0.0 0.00 0.00 0.00 96 1021.8
20260830090106 20 0 0.0 0.0 0.00 0.00 0.00 96 1021.8
20260830085536 20 0 0.0 0.0 0.00 0.00 0.00 96 1021.7
20260830085035 20 0 0.0 0.0 0.00 0.00 0.00 96 1021.6
20260830084605 20 0 0.0 0.0 0.00 0.00 0.00 96 1021.5
20260830084037 20 0 0.0 0.0 0.00 0.00 0.00 96 1021.7
20260830083537 20 0 0.0 0.0 0.00 0.00 0.00 96 1021.7
20260830083107 20 0 0.0 0.0 0.00 0.00 0.00 96 1021.6
20260830082535 20 0 0.0 0.0 0.00 0.00 0.00 96 1021.7
20260830082034 20 0 0.0 0.0 0.00 0.00 0.00 96 1021.7
20260830081610 20 0 0.0 0.0 0.00 0.00 0.00 95 1021.7
20260830081038 20 0 0.0 0.0 0.00 0.00 0.00 95 1021.8
20260830080540 20 0 0.0 0.0 0.00 0.00 0.00 95 1021.8
20260830080104 20 0 0.0 0.0 0.00 0.00 0.00 95 1021.8
20260830075538 20 0 0.0 0.0 0.00 0.00 0.00 95 1021.8
20260830075038 20 0 0.0 0.0 0.00 0.00 0.00 95 1021.9
20260830074609 20 0 0.0 0.0 0.00 0.00 0.00 95 1021.9
20260830074039 20 0 0.0 0.0 0.00 0.00 0.00 95 1021.9
20260830073538 20 0 0.0 0.0 0.00 0.00 0.00 95 1022.0
20260830073106 20 0 0.0 0.0 0.00 0.00 0.00 95 1022.0
20260830072538 20 0 0.0 0.0 0.00 0.00 0.00 95 1022.0
20260830072039 20 0 0.0 0.0 0.00 0.00 0.00 95 1022.0
20260830071605 20 0 0.0 0.0 0.00 0.00 0.00 94 1022.1
20260830071038 20 0 0.0 0.0 0.00 0.00 0.00 94 1022.1
20260830070535 20 0 0.0 0.0 0.00 0.00 0.00 94 1022.1
20260830070059 20 0 0.0 0.0 0.00 0.00 0.00 94 1022.1
20260830065535 20 0 0.0 0.0 0.00 0.00 0.00 94 1022.1
20260830065035 20 0 0.0 0.0 0.00 0.00 0.00 94 1022.0
20260830064606 20 0 0.0 0.0 0.00 0.00 0.00 94 1022.0
20260830064036 20 0 0.0 0.0 0.00 0.00 0.00 94 1022.2
20260830063535 20 0 0.0 0.0 0.00 0.00 0.00 94 1022.2
20260830063102 20 0 0.0 0.0 0.00 0.00 0.00 94 1022.2
20260830062536 20 0 0.0 0.0 0.00 0.00 0.00 94 1022.2
20260830062037 20 0 0.0 0.0 0.00 0.00 0.00 94 1022.2
20260830061600 20 0 0.0 0.0 0.00 0.00 0.00 93 1022.2
20260830061035 20 0 0.0 0.0 0.00 0.00 0.00 93 1022.3
20260830060535 20 0 0.0 0.0 0.00 0.00 0.00 93 1022.3
20260830060058 20 0 0.0 0.0 0.00 0.00 0.00 93 1022.3
20260830055540 20 0 0.0 0.0 0.00 0.00 0.00 93 1022.4
20260830055038 20 0 0.0 0.0 0.00 0.00 0.00 93 1022.4
20260830054600 20 0 0.0 0.0 0.00 0.00 0.00 93 1022.4
20260830054037 20 0 0.0 0.0 0.00 0.00 0.00 93 1022.5
20260830053535 20 0 0.0 0.0 0.00 0.00 0.00 93 1022.5
20260830053101 20 0 0.0 0.0 0.00 0.00 0.00 93 1022.4
20260830052537 20 0 0.0 0.0 0.00 0.00 0.00 93 1022.5
20260830052038 20 0 0.0 0.0 0.00 0.00 0.00 93 1022.5
20260830051605 20 0 0.0 0.0 0.00 0.00 0.00 93 1022.5
20260830051037 20 0 0.0 0.0 0.00 0.00 0.00 93 1022.5
20260830050538 20 0 0.0 0.0 0.00 0.00 0.00 93 1022.5
20260830045537 20 0 0.0 0.0 0.00 0.00 0.00 93 1022.4
20260830045039 20 0 0.0 0.0 0.00 0.00 0.00 93 1022.4
20260830044559 20 0 0.0 0.0 0.00 0.00 0.00 92 1022.5
20260830044036 20 0 0.0 0.0 0.00 0.00 0.00 92 1022.6
20260830043536 20 0 0.0 0.0 0.00 0.00 0.00 92 1022.6
20260830043106 20 0 0.0 0.0 0.00 0.00 0.00 92 1022.6
20260830042535 20 0 0.0 0.0 0.00 0.00 0.00 92 1022.5
20260830042038 20 0 0.0 0.0 0.00 0.00 0.00 92 1022.5
20260830041612 20 0 0.0 0.0 0.00 0.00 0.00 92 1022.5
20260830041037 20 0 0.0 0.0 0.00 0.00 0.00 92 1022.4
20260830040537 20 0 0.0 0.0 0.00 0.00 0.00 91 1022.3
20260830040108 20 0 0.0 0.0 0.00 0.00 0.00 91 1022.2
20260830035559 20 0 0.0 0.0 0.00 0.00 0.00 90 1022.2
20260830035040 20 0 0.0 0.0 0.00 0.00 0.00 90 1022.2
20260830034558 20 0 0.0 0.0 0.00 0.00 0.00 90 1022.2
20260830034036 20 0 0.0 0.0 0.00 0.00 0.00 90 1022.2
20260830033534 20 0 0.0 0.0 0.00 0.00 0.00 91 1022.1
20260830033101 20 0 0.0 0.0 0.00 0.00 0.00 90 1022.1
20260830032537 20 0 0.0 0.0 0.00 0.00 0.00 90 1022.0
20260830032037 20 0 0.0 0.0 0.00 0.00 0.00 90 1022.0
20260830031601 20 0 0.0 0.0 0.00 0.00 0.00 89 1021.9
20260830031038 20 0 0.0 0.0 0.00 0.00 0.00 89 1022.0
20260830030539 20 0 0.0 0.0 0.00 0.00 0.00 90 1022.1
20260830030134 20 0 0.0 0.0 0.00 0.00 0.00 89 1022.1
20260830025536 21 0 0.0 0.0 0.00 0.00 0.00 89 1022.2
20260830025036 21 0 0.0 0.0 0.00 0.00 0.00 89 1022.0
20260830024602 21 0 0.0 0.0 0.00 0.00 0.00 88 1022.0
20260830024038 21 0 0.0 0.0 0.00 0.00 0.00 88 1022.1
20260830023540 21 0 0.0 0.0 0.00 0.00 0.00 88 1022.1
20260830023127 21 0 0.0 0.0 0.00 0.00 0.00 87 1022.2
20260830022542 21 0 0.0 0.0 0.00 0.00 0.00 87 1022.1